Tracking 20369 objects as of 18-Feb-2020
HD Live streaming from Space Station
objects crossing your sky now

DTUSAT-2

Track DTUSAT-2 now!
10-day predictions
DTUSAT-2 is classified as:


NORAD ID: 40030
Int'l Code: 2014-033W
Perigee: 601.3 km
Apogee: 617.2 km
Inclination: 97.9 °
Period: 96.7 minutes
Semi major axis: 6980 km
RCS: Unknown
Launch date: June 19, 2014
Source: Denmark (DEN)
Launch site: Orenburg, Russia (OREN)

Uplink (MHz): 1268.900
Downlink (MHz): 2401.835
Beacon (MHz): 2401.860
Mode: 9k6CPFSK/1k2 19k2 38k4MSK CW
Call sign: OZ2DTU
Status: Active

aabbcc
Your satellite tracking list
Your tracking list is empty




NASA's NSSDC Master Catalog

Two Line Element Set (TLE):
1 40030U 14033W   20048.70082339 +.00000156 +00000-0 +22783-4 0  9992
2 40030 097.9023 330.7726 0011407 339.6186 020.4574 14.88654763307044
Source of the keplerian elements: AMSAT